Regional Weather Roundup
Issued by NWS

Home | Current Version | Previous Version | Text Only | Print | Product List | Glossary Off
Versions: 1 2 3 4 5 6 7 8 9 10 11 12 13 14 15 16 17 18 19 20 21 22 23 24 25 26 27 28 29 30 31 32 33 34 35 36 37 38 39 40 41 42 43 44 45 46 47 48 49 50

000
ASUS43 KDTX 220410
RWRMI
MICHIGAN HOURLY REGIONAL WEATHER ROUNDUP
NATIONAL WEATHER SERVICE DETROIT/PONTIAC MI
1200 AM EDT TUE MAY 22 2018

NOTE: "FAIR" INDICATES FEW OR NO CLOUDS BELOW 12,000 FEET WITH NO
SIGNIFICANT WEATHER AND/OR OBSTRUCTION TO VISIBILITY.

MIZ047>049-052>055-059>063-066>070-074>076-081>083-220500-
SOUTHEAST LOWER MICHIGAN

CITY           SKY/WX    TMP DP  RH WIND       PRES   REMARKS
ADRIAN         CLOUDY    53  52  96 E6        30.06F
ALMA           RAIN      51  51  98 E10       30.06F
ANN ARBOR      RAIN      53  49  86 CALM      30.06S FOG
BAD AXE        RAIN      50  44  80 S7        30.09F
CARO           CLOUDY    55  44  68 SE5       30.07S
DETROIT CITY   CLOUDY    54  49  83 E5        30.06S
DETROIT        CLOUDY    55  47  74 CALM      30.06F
FLINT          LGT RAIN  50  48  93 E6        30.06S
GROSSE ILE     CLOUDY    55  52  90 CALM      30.06R
HILLSDALE      HVY RAIN  52  50  93 SE7       30.04F
HOWELL         CLOUDY    53  49  88 SE6       30.05F

CITY           SKY/WX    TMP DP  RH WIND       PRES   REMARKS
JACKSON        LGT RAIN  52  50  93 SE6       30.05F
LAMBERTVILLE   CLOUDY    58  52  81 E7        30.04F
LANSING        CLOUDY    53  49  86 VRB5      30.05S
LAPEER         HVY RAIN  51  48  92 SE3       30.07S
MASON          CLOUDY    52  47  82 SE8       30.05F
MONROE         CLOUDY    55  53  92 SE7       30.06S
MT. CLEMENS    LGT RAIN  55  53  94 E3        30.05S
PONTIAC        CLOUDY    53  48  83 E5        30.05S
PORT HOPE        N/A     50  41  71 E7        30.06S
PORT HURON     RAIN      52  48  87 E6        30.06F
TRI CITIES     LGT RAIN  57  47  69 E9        30.06F
MIDLAND        RAIN      52  49  89 E5        30.06S
TROY           CLOUDY    55  48  77 CALM      30.07F
SAGINAW HB     LGT RAIN  57  46  67 E6        30.05S
$$
MIZ043>046-050>051-056>058-064>065-071>073-077>080-220500-
SOUTHWEST LOWER MICHIGAN

CITY           SKY/WX    TMP DP  RH WIND       PRES   REMARKS
BATTLE CREEK   LGT RAIN  56  54  93 SE8       30.03F
BENTON HARBOR  CLOUDY    59  57  93 SE7       29.99F
BIG RAPIDS     LGT RAIN  50  49  95 CALM      30.05F
COLDWATER      CLOUDY    56  54  94 SE9       30.03F
FREMONT        CLOUDY    51  50  99 E7        30.03F FOG
GRAND RAPIDS   LGT RAIN  53  53 100 NE6       30.03S FOG
IONIA          CLOUDY    51  51  99 E7        30.03F
KALAMAZOO      CLOUDY    58  55  90 SE5       30.02F
LUDINGTON      CLOUDY    50  49  98 E6        30.03F
MARSHALL       CLOUDY    54  53  95 SE7       30.03F
MOUNT PLEASANT RAIN      53  53  99 NE3       30.05F
MUSKEGON       CLOUDY    53  50  89 E7        30.02F FOG
SOUTH HAVEN    CLOUDY    59  57  94 SE5       29.99F FOG
$$
MIZ016>042-220500-
NORTHERN LOWER MICHIGAN

CITY           SKY/WX    TMP DP  RH WIND       PRES   REMARKS
ALPENA         CLOUDY    53  48  83 CALM      30.09F
BEAVER ISLAND  FAIR      51  44  75 CALM      30.07F
BELLAIRE       CLOUDY    54  47  76 CALM      30.05F
CADILLAC       CLOUDY    49  47  92 SE3       30.06S
CHARLEVOIX     CLOUDY    50  43  76 CALM      30.09F
FRANKFORT      CLOUDY    54  48  80 CALM      30.05S
GAYLORD        CLOUDY    52  46  80 E3        30.07F
GRAYLING       CLOUDY    53  44  73 CALM      30.06F
HARBOR SPRINGS FAIR      53  44  71 NE3       30.07F
HOUGHTON LAKE  CLOUDY    51  47  86 E6        30.08S
MANISTEE       LGT RAIN  50  49  96 E8        30.04F
OSCODA         LGT RAIN  48  45  87 CALM      30.09S
PELLSTON       FAIR      55  45  68 CALM      30.08F
ROGERS CITY    FAIR      55  44  65 CALM      30.10F
TRAVERSE CITY  CLOUDY    53  48  83 CALM      30.04
$$
MIZ007>008-015-220500-
EASTERN UPPER MICHIGAN

CITY           SKY/WX    TMP DP  RH WIND       PRES   REMARKS
KINROSS        FAIR      54  37  52 S6        30.08S
MACKINAC ISLAN FAIR      56  40  56 S6        30.08S
NEWBERRY       CLOUDY    55  44  67 S5        30.06F
S. S. MARIE    FAIR      55  36  48 SE6       30.06F
MUNISING         N/A     57  45  64 VRB6      30.04F
$$
MIZ004>006-011>014-085-220500-
CENTRAL UPPER MICHIGAN

CITY           SKY/WX    TMP DP  RH WIND       PRES   REMARKS
MANISTIQUE     MOCLDY    52  46  80 S6        30.06F
ESCANABA       CLOUDY    53  45  74 SW3       30.07F
SAWYER-GWINN   MOCLDY    54  41  61 S9        30.05F
$$
MIZ001>003-009>011-084-220500-
WESTERN UPPER MICHIGAN

CITY           SKY/WX    TMP DP  RH WIND       PRES   REMARKS
IRON MOUNTAIN  CLOUDY    53  47  79 S5        30.05S
HOUGHTON       FAIR      52  31  44 S3        30.00S
COPPER HARBOR    N/A     51  33  50 SW13G22   29.98S
IRONWOOD       FAIR      57  48  72 S6        30.03S
$$

ABBREVIATIONS USED IN REMARKS
   TC - TEMPERATURE IN CELSIUS
  WCI - WIND CHILL INDEX
   HX - HEAT INDEX
  VSB - VISIBILITY




USA.gov is the U.S. government's official web portal to all federal, state and local government web resources and services.